DW0148 Weather Reports


time (UTC)temp
F
wind
direction
speed
knots
gust
knots
rain 1hr
in
rain 24hr
in
rain mn
in
humidity
%
barometer
mb
20180425213534 61 359 0.9 4.3 0.00 0.03 0.00 72 1015.7
20180425213033 61 328 0.9 4.3 0.00 0.03 0.00 70 1015.7
20180425212533 62 286 1.7 5.2 0.00 0.03 0.00 70 1015.7
20180425212032 62 16 1.7 5.2 0.00 0.03 0.00 70 1015.7
20180425211531 62 345 2.6 7.0 0.00 0.03 0.00 71 1015.4
20180425211030 62 26 2.6 7.0 0.00 0.03 0.00 70 1015.4
20180425210529 62 25 0.9 4.3 0.00 0.03 0.00 70 1015.4
20180425210028 62 236 0.9 2.6 0.00 0.03 0.00 72 1015.4
20180425205528 62 281 0.0 2.6 0.00 0.03 0.00 71 1015.4
20180425205027 62 304 1.7 4.3 0.00 0.03 0.00 71 1015.4
20180425204526 62 218 0.9 5.2 0.00 0.03 0.00 72 1015.4
20180425204025 62 186 1.7 6.1 0.00 0.03 0.00 71 1015.4
20180425203524 62 305 1.7 7.8 0.00 0.03 0.00 73 1015.4
20180425203023 63 160 2.6 7.8 0.00 0.03 0.00 72 1015.4
20180425202522 63 90 0.9 3.5 0.00 0.03 0.00 70 1015.4
20180425202021 63 56 0.9 3.5 0.00 0.03 0.00 70 1015.4
20180425201520 63 16 0.9 2.6 0.00 0.03 0.00 71 1015.4
20180425201019 63 199 0.9 7.0 0.00 0.03 0.00 69 1015.4
20180425200518 63 250 1.7 7.0 0.00 0.03 0.00 69 1015.4
20180425200017 63 291 1.7 8.7 0.00 0.03 0.00 70 1015.4
20180425195516 63 337 3.5 8.7 0.00 0.03 0.00 68 1015.1
20180425195016 63 5 0.9 5.2 0.00 0.03 0.00 69 1015.4
20180425194515 62 246 0.9 0.9 0.00 0.03 0.00 70 1015.4
20180425194014 62 120 0.9 2.6 0.00 0.03 0.00 70 1015.4
20180425193513 62 224 0.9 4.3 0.00 0.03 0.00 70 1015.4
20180425193013 62 200 0.9 4.3 0.00 0.03 0.00 72 1015.4
20180425192512 62 210 1.7 5.2 0.00 0.03 0.00 71 1015.4
20180425192012 63 169 2.6 5.2 0.00 0.03 0.00 69 1015.7
20180425191510 63 223 0.9 2.6 0.00 0.03 0.00 72 1015.7
20180425191009 63 200 0.9 5.2 0.00 0.03 0.00 70 1015.4
20180425190508 63 116 0.9 5.2 0.00 0.03 0.00 72 1015.7
20180425190007 63 265 0.9 7.0 0.00 0.03 0.00 70 1015.7
20180425185506 63 113 1.7 7.0 0.00 0.03 0.00 70 1015.4
20180425185005 64 153 0.9 3.5 0.00 0.04 0.00 70 1015.4
20180425184504 64 247 0.9 4.3 0.00 0.04 0.00 67 1015.1
20180425184003 64 358 1.7 4.3 0.00 0.05 0.00 67 1015.1
20180425183502 64 216 1.7 4.3 0.00 0.05 0.00 69 1015.1
20180425183001 64 143 1.7 4.3 0.00 0.06 0.00 70 1014.7
20180425182500 64 253 0.9 3.5 0.00 0.06 0.00 71 1015.1
20180425181959 63 245 0.9 2.6 0.00 0.06 0.00 71 1015.1
20180425181457 63 145 1.7 2.6 0.00 0.06 0.00 71 1015.4
20180425180957 63 217 1.7 7.8 0.00 0.06 0.00 71 1015.4
20180425180455 63 196 0.9 7.8 0.00 0.06 0.00 69 1015.4
20180425175954 63 1 1.7 9.6 0.00 0.06 0.00 69 1015.4
20180425175452 63 358 5.2 9.6 0.00 0.06 0.00 68 1015.4
20180425174951 62 46 0.9 7.0 0.00 0.06 0.00 72 1015.4
20180425174450 62 339 3.5 7.0 0.00 0.06 0.00 74 1015.4
20180425173949 62 340 1.7 5.2 0.00 0.06 0.00 71 1015.4
20180425173448 61 350 1.7 7.0 0.00 0.06 0.00 73 1015.7
20180425172947 61 24 1.7 7.0 0.00 0.06 0.00 73 1015.7
20180425172446 61 291 0.9 3.5 0.00 0.06 0.00 74 1015.7
20180425171945 61 173 1.7 3.5 0.00 0.06 0.00 76 1015.7
20180425171445 61 5 0.0 2.6 0.00 0.06 0.00 77 1015.7
20180425170944 61 4 0.0 5.2 0.00 0.06 0.00 77 1015.7
20180425170443 61 6 0.9 5.2 0.00 0.06 0.00 74 1015.7
20180425165942 61 32 0.9 7.0 0.00 0.06 0.00 73 1015.7
20180425165441 62 5 3.5 7.0 0.00 0.06 0.00 72 1015.7
20180425164940 62 7 2.6 8.7 0.00 0.06 0.00 75 1015.4
20180425164439 62 326 3.5 8.7 0.00 0.06 0.00 72 1015.4
20180425163938 62 5 3.5 7.0 0.00 0.06 0.00 72 1015.7
20180425163437 62 347 2.6 7.0 0.00 0.06 0.00 71 1015.7
20180425162936 63 22 0.9 4.3 0.00 0.06 0.00 71 1015.7
20180425162435 63 70 0.9 4.3 0.00 0.06 0.00 72 1015.7
20180425161934 63 210 2.6 5.2 0.00 0.06 0.00 71 1015.7
20180425161433 62 3 3.5 5.2 0.00 0.06 0.00 72 1015.7
20180425160932 62 13 2.6 5.2 0.00 0.06 0.00 75 1015.7
20180425160431 61 19 2.6 5.2 0.00 0.06 0.00 74 1015.7
20180425155930 61 6 1.7 7.8 0.00 0.06 0.00 75 1016.1
20180425155429 61 331 2.6 7.8 0.00 0.06 0.00 77 1016.1
20180425154929 61 63 2.6 4.3 0.00 0.06 0.00 72 1015.7
20180425154428 61 6 1.7 7.0 0.00 0.06 0.00 75 1015.7
20180425153927 61 356 1.7 7.0 0.00 0.06 0.00 75 1015.7
20180425153425 61 23 3.5 7.0 0.00 0.06 0.00 75 1015.7
20180425152925 61 351 1.7 5.2 0.00 0.06 0.00 76 1015.7
20180425152423 61 5 3.5 5.2 0.00 0.06 0.00 76 1015.7
20180425151922 60 59 1.7 6.1 0.00 0.06 0.00 76 1015.7
20180425151421 60 10 1.7 7.0 0.00 0.06 0.00 77 1015.7
20180425150920 60 13 1.7 7.8 0.00 0.06 0.00 78 1016.1
20180425150419 60 342 3.5 7.8 0.00 0.06 0.00 78 1015.7
20180425145918 60 344 1.7 7.0 0.00 0.06 0.00 79 1016.1
20180425145417 59 345 1.7 4.3 0.00 0.06 0.00 79 1016.1
20180425144916 59 346 1.7 7.0 0.00 0.06 0.00 81 1015.7
20180425144415 59 344 1.7 7.0 0.00 0.06 0.00 79 1016.1
20180425143915 59 294 1.7 7.0 0.00 0.06 0.00 81 1016.1
20180425143414 59 286 0.9 7.8 0.00 0.06 0.00 83 1016.1
20180425142913 58 222 0.9 7.8 0.00 0.06 0.00 83 1015.7
20180425142412 58 341 1.7 4.3 0.00 0.06 0.00 85 1015.7
20180425141911 58 345 1.7 2.6 0.00 0.06 0.00 85 1015.7
20180425141410 58 325 0.0 2.6 0.00 0.06 0.00 85 1015.7
20180425140909 58 332 1.7 2.6 0.00 0.06 0.00 84 1015.7
20180425140408 58 1 0.0 2.6 0.00 0.06 0.00 85 1015.7
20180425135907 58 359 0.0 3.5 0.00 0.06 0.00 84 1015.7
20180425135405 58 352 0.9 3.5 0.00 0.06 0.00 84 1015.7
20180425134904 58 208 0.9 2.6 0.00 0.06 0.00 84 1015.7
20180425134403 58 6 0.9 3.5 0.00 0.06 0.00 85 1015.7
20180425133902 58 41 1.7 3.5 0.00 0.06 0.00 85 1015.7
20180425133402 58 332 0.9 0.9 0.00 0.06 0.00 87 1015.7
20180425132900 57 328 0.0 0.9 0.00 0.06 0.00 88 1015.4
20180425132359 57 327 0.9 0.9 0.00 0.06 0.00 89 1015.7
20180425131858 57 335 0.0 1.7 0.00 0.06 0.00 90 1015.4
20180425131357 56 332 0.9 1.7 0.00 0.06 0.00 89 1015.4
20180425130856 56 352 0.9 2.6 0.00 0.06 0.00 91 1015.4
20180425130355 55 51 1.7 2.6 0.00 0.06 0.00 94 1015.4
20180425125854 55 30 0.9 0.9 0.00 0.06 0.00 95 1015.4
20180425125353 55 30 0.0 0.0 0.00 0.06 0.00 95 1015.4
20180425124852 55 32 0.0 0.0 0.00 0.06 0.00 95 1015.4
20180425124351 55 32 0.0 0.9 0.00 0.06 0.00 95 1015.4
20180425123850 55 32 0.0 0.9 0.00 0.06 0.00 95 1015.4
20180425123349 55 32 0.0 0.9 0.00 0.06 0.00 95 1015.4
20180425122848 55 30 0.0 0.9 0.00 0.06 0.00 95 1015.4
20180425122347 55 28 0.0 0.9 0.00 0.06 0.00 95 1015.4
20180425121846 55 29 0.0 0.9 0.00 0.07 0.00 96 1015.1
20180425121345 55 28 0.0 0.9 0.00 0.07 0.00 96 1015.1
20180425120844 55 28 0.0 0.9 0.00 0.07 0.00 96 1015.1
20180425120343 55 29 0.0 0.9 0.00 0.07 0.00 96 1014.7
20180425115842 54 42 0.0 0.9 0.00 0.07 0.00 96 1014.7
20180425115341 54 42 0.9 0.9 0.00 0.07 0.00 96 1014.7
20180425114840 54 32 0.9 0.9 0.00 0.07 0.00 96 1014.7
20180425114339 54 32 0.9 0.9 0.00 0.07 0.00 96 1014.4
20180425113838 54 32 0.9 0.9 0.00 0.07 0.00 96 1014.4
20180425113337 53 25 0.9 0.9 0.00 0.07 0.00 95 1014.4
20180425112836 53 25 0.0 0.0 0.00 0.08 0.00 95 1014.4
20180425112335 53 25 0.0 0.0 0.00 0.08 0.00 95 1014.4
20180425111834 53 25 0.0 0.0 0.00 0.08 0.00 95 1014.4
20180425111333 53 25 0.0 0.0 0.00 0.09 0.00 95 1014.4
20180425110832 53 25 0.0 0.0 0.00 0.09 0.00 95 1014.4
20180425110331 53 25 0.0 0.0 0.00 0.11 0.00 95 1014.1
20180425105830 53 25 0.0 0.0 0.00 0.11 0.00 95 1014.1
20180425105329 53 25 0.0 0.0 0.00 0.13 0.00 95 1014.1
20180425104829 53 25 0.0 0.9 0.00 0.14 0.00 95 1014.1
20180425104327 53 25 0.0 0.9 0.00 0.15 0.00 95 1014.1
20180425103827 53 25 0.0 0.9 0.00 0.15 0.00 95 1014.1
20180425103326 53 25 0.0 0.0 0.00 0.16 0.00 95 1014.1
20180425102825 53 25 0.0 0.0 0.00 0.17 0.00 95 1014.1
20180425102324 53 25 0.0 0.0 0.00 0.17 0.00 95 1013.7
20180425101823 53 25 0.0 0.0 0.00 0.17 0.00 95 1013.7
20180425101322 52 25 0.0 0.0 0.00 0.18 0.00 95 1013.7
20180425100821 53 25 0.0 0.0 0.00 0.18 0.00 95 1013.7
20180425100320 53 25 0.0 0.0 0.00 0.18 0.00 95 1013.7
20180425095820 53 25 0.0 0.0 0.00 0.18 0.00 95 1013.7
20180425095318 53 25 0.0 0.0 0.00 0.18 0.00 95 1013.4
20180425094817 53 25 0.0 0.0 0.00 0.19 0.00 95 1013.7
20180425094313 53 25 0.0 0.0 0.00 0.20 0.00 95 1013.7
20180425093812 54 25 0.0 0.0 0.00 0.21 0.00 95 1013.4
20180425093311 54 25 0.0 0.9 0.00 0.21 0.00 95 1013.4
20180425092810 54 25 0.0 0.9 0.00 0.22 0.00 95 1013.4
20180425092309 54 25 0.0 0.9 0.00 0.23 0.00 95 1013.4
20180425091808 54 25 0.0 0.9 0.00 0.24 0.00 95 1013.4
20180425091308 54 25 0.0 0.0 0.00 0.24 0.00 95 1013.4
20180425090807 54 25 0.0 0.0 0.00 0.25 0.00 95 1013.4
20180425090306 54 25 0.0 0.0 0.00 0.25 0.00 95 1013.7
20180425085805 54 24 0.0 0.0 0.00 0.25 0.00 95 1013.7
20180425085305 54 25 0.0 0.0 0.00 0.26 0.00 95 1013.4
20180425084803 54 25 0.0 0.0 0.00 0.27 0.00 95 1013.7
20180425084302 54 25 0.0 0.0 0.00 0.28 0.00 95 1013.4
20180425083801 54 29 0.0 0.0 0.00 0.28 0.00 95 1013.4
20180425083300 54 29 0.0 0.0 0.00 0.29 0.00 95 1013.4
20180425082759 54 29 0.0 0.0 0.00 0.31 0.00 95 1013.4
20180425082258 54 30 0.0 0.0 0.00 0.35 0.00 95 1013.4
20180425081757 54 29 0.0 0.0 0.00 0.38 0.00 95 1013.4
20180425081256 54 29 0.0 0.0 0.00 0.39 0.00 95 1013.4
20180425080755 54 28 0.0 0.0 0.00 0.41 0.00 95 1013.4
20180425080254 54 28 0.0 0.0 0.00 0.42 0.00 95 1013.4
20180425075753 54 28 0.0 0.0 0.00 0.43 0.00 95 1013.4
20180425075252 54 28 0.0 0.0 0.00 0.44 0.00 95 1013.4
20180425074751 54 28 0.0 0.0 0.00 0.44 0.00 95 1013.4
20180425074250 54 29 0.0 0.0 0.00 0.44 0.00 95 1013.4
20180425073749 54 29 0.0 0.0 0.00 0.44 0.00 95 1013.4
20180425073248 54 28 0.0 0.0 0.00 0.44 0.00 95 1013.4
20180425072748 54 28 0.0 0.0 0.00 0.44 0.00 95 1013.4
20180425072246 54 28 0.0 0.0 0.00 0.44 0.00 95 1013.4
20180425071746 54 29 0.0 0.0 0.00 0.44 0.00 95 1013.4
20180425071245 54 28 0.0 0.0 0.00 0.44 0.00 95 1013.4
20180425070744 54 29 0.0 0.0 0.00 0.45 0.00 95 1013.4
20180425070243 54 28 0.0 0.0 0.00 0.45 0.00 95 1013.4
20180425065742 54 28 0.0 0.0 0.00 0.45 0.00 95 1013.4
20180425065241 54 28 0.0 0.0 0.00 0.45 0.00 95 1013.4
20180425064740 54 28 0.0 0.0 0.00 0.46 0.00 95 1013.4
20180425064239 54 28 0.0 0.0 0.00 0.47 0.00 95 1013.4
20180425063738 55 29 0.0 0.0 0.00 0.48 0.00 95 1013.4
20180425063237 55 28 0.0 0.0 0.00 0.49 0.00 95 1013.4
20180425062736 55 28 0.0 0.9 0.00 0.51 0.00 95 1013.7
20180425062235 54 29 0.0 0.9 0.00 0.55 0.00 95 1013.7
20180425061735 54 28 0.0 0.9 0.00 0.57 0.00 95 1013.7
20180425061233 54 29 0.0 0.9 0.00 0.61 0.00 95 1013.7
20180425060733 54 30 0.0 0.0 0.00 0.66 0.00 95 1013.7
20180425060232 54 30 0.0 0.0 0.00 0.68 0.00 95 1013.7
20180425055730 54 30 0.0 0.0 0.00 0.72 0.00 95 1013.7
20180425055229 54 30 0.0 0.0 0.00 0.76 0.00 95 1013.7
20180425054728 54 30 0.0 0.9 0.00 0.78 0.00 95 1013.7
20180425054227 54 30 0.0 0.9 0.00 0.81 0.00 95 1013.7
20180425053726 54 30 0.0 0.9 0.00 0.83 0.00 95 1013.7
20180425053225 54 30 0.9 0.9 0.00 0.86 0.00 95 1014.1
20180425052724 54 30 0.9 0.9 0.00 0.90 0.00 95 1014.1
20180425052223 54 30 0.9 0.9 0.00 0.93 0.00 95 1014.1
20180425051721 54 30 0.0 0.0 0.00 0.97 0.00 95 1014.1
20180425051215 53 30 0.0 0.0 0.00 1.03 0.00 95 1014.1
20180425050715 53 30 0.0 0.0 0.00 1.06 0.00 95 1014.1
20180425050213 54 30 0.0 0.9 0.00 1.08 0.00 95 1014.1
20180425045713 54 30 0.0 0.9 0.00 1.10 0.00 95 1013.7
20180425045206 54 30 0.0 0.9 0.00 1.10 0.00 95 1013.7
20180425044705 54 30 0.0 0.9 0.00 1.11 0.00 95 1013.7
20180425044200 55 18 0.0 0.0 0.00 1.11 0.00 95 1013.7
20180425043657 55 18 0.0 0.0 0.00 1.11 0.00 95 1013.7
20180425043149 55 18 0.0 0.0 0.00 1.11 0.00 95 1013.7
20180425042617 55 18 0.0 0.0 0.00 1.12 0.00 95 1013.7
20180425042045 55 18 0.0 0.0 0.00 1.12 0.00 95 1013.7
20180425041544 55 18 0.0 0.0 0.00 1.12 0.00 95 1013.7
20180425041043 55 18 0.0 0.0 0.00 1.12 0.00 95 1013.7
20180425040542 55 18 0.0 0.9 0.00 1.13 0.00 95 1013.7
20180425040041 55 18 0.0 0.9 0.00 1.14 0.00 95 1013.7
20180425035540 55 18 0.0 1.7 0.00 1.18 1.14 95 1013.7
20180425035039 55 18 0.0 1.7 0.00 1.19 1.14 95 1013.7
20180425034538 55 18 0.9 2.6 0.00 1.25 1.14 95 1014.1
20180425034037 55 336 1.7 2.6 0.00 1.38 1.14 95 1014.1
20180425033536 55 97 0.0 0.9 0.00 1.41 1.14 95 1014.1
20180425033036 55 97 0.0 0.9 0.00 1.41 1.14 95 1014.1
20180425032535 55 97 0.9 0.9 0.00 1.42 1.14 95 1014.1
20180425032034 55 98 0.0 0.9 0.00 1.42 1.14 95 1014.1
20180425031533 55 97 0.9 0.9 0.00 1.42 1.14 95 1014.1
20180425031032 55 49 0.9 0.9 0.00 1.42 1.14 95 1014.1
20180425030531 55 49 0.9 0.9 0.00 1.42 1.14 95 1014.4
20180425030030 55 49 0.0 0.0 0.00 1.42 1.14 95 1014.4
20180425025529 55 49 0.0 0.0 0.00 1.43 1.14 95 1014.4
20180425025028 55 50 0.0 0.0 0.00 1.44 1.14 95 1014.4
20180425024528 55 49 0.0 0.0 0.00 1.45 1.14 95 1014.4
20180425024027 55 49 0.0 0.0 0.00 1.46 1.14 95 1014.4
20180425023526 55 49 0.0 0.0 0.00 1.47 1.14 95 1014.4
20180425023024 55 49 0.0 0.0 0.00 1.49 1.14 95 1014.1
20180425022524 55 48 0.0 0.0 0.00 1.51 1.14 95 1014.4
20180425022023 55 49 0.0 0.0 0.00 1.54 1.14 95 1014.1
20180425021522 55 49 0.0 0.0 0.00 1.55 1.14 95 1014.1
20180425021021 55 49 0.0 0.0 0.00 1.56 1.14 95 1013.7
20180425020520 55 49 0.0 0.0 0.00 1.56 1.14 95 1013.7
20180425020019 55 49 0.0 0.0 0.00 1.56 1.14 95 1013.7
20180425015447 55 49 0.0 0.0 0.00 1.56 1.14 95 1013.7
20180425014945 55 49 0.0 0.0 0.00 1.58 1.14 95 1013.7
20180425014444 55 48 0.0 0.0 0.00 1.60 1.14 94 1013.7
20180425013943 55 49 0.0 0.9 0.00 1.61 1.14 94 1013.7
20180425013442 55 49 0.0 0.9 0.00 1.65 1.14 94 1013.7
20180425012942 55 49 0.9 0.9 0.00 1.66 1.14 94 1013.7
20180425012440 55 49 0.0 0.0 0.00 1.66 1.14 94 1013.7
20180425011939 55 49 0.0 0.0 0.00 1.67 1.14 94 1013.4
20180425011438 55 49 0.0 0.0 0.00 1.68 1.14 94 1013.4
20180425010938 55 49 0.0 0.0 0.00 1.68 1.14 94 1013.4
20180425010436 55 49 0.0 0.0 0.00 1.68 1.14 94 1013.4
20180425005935 56 49 0.0 0.0 0.00 1.68 1.14 93 1013.4
20180425005434 56 49 0.0 0.9 0.00 1.68 1.14 93 1013.4
20180425004933 56 49 0.0 0.9 0.00 1.68 1.14 93 1013.0
20180425004432 56 49 0.0 0.9 0.00 1.68 1.14 93 1013.0
20180425003931 57 49 0.0 0.9 0.00 1.68 1.14 93 1013.0
20180425003431 57 49 0.0 0.9 0.00 1.68 1.14 93 1013.0
20180425002930 57 49 0.0 0.9 0.01 1.68 1.14 92 1012.7
20180425002429 58 49 0.9 0.9 0.01 1.68 1.14 92 1012.7
20180425001927 58 50 0.0 0.0 0.01 1.68 1.14 92 1012.7
20180425001427 58 50 0.0 0.0 0.01 1.68 1.14 92 1012.7
20180425000926 58 50 0.0 0.9 0.02 1.68 1.14 92 1012.7
20180425000425 58 49 0.0 0.9 0.02 1.68 1.14 92 1012.7
20180424235924 58 49 0.0 0.9 0.02 1.68 1.14 92 1012.7
20180424235423 58 49 0.9 0.9 0.03 1.68 1.14 91 1012.7
20180424234921 59 246 0.0 0.9 0.03 1.68 1.14 91 1012.7
20180424234420 59 245 0.0 0.9 0.03 1.68 1.14 91 1012.7
20180424233920 59 245 0.9 0.9 0.03 1.68 1.14 90 1012.7
20180424233418 59 240 0.0 0.0 0.03 1.69 1.14 89 1012.7
20180424232917 59 240 0.0 0.0 0.02 1.69 1.13 89 1012.7
20180424232417 59 240 0.0 0.0 0.02 1.69 1.13 89 1012.7
20180424231916 60 240 0.0 0.9 0.02 1.69 1.13 88 1012.4
20180424231415 60 240 0.0 1.7 0.01 1.68 1.12 88 1012.4
20180424230914 60 240 0.0 1.7 0.01 1.68 1.12 87 1012.4
20180424230413 61 240 0.9 2.6 0.01 1.68 1.12 85 1012.4
20180424225912 61 140 0.9 2.6 0.01 1.68 1.12 83 1012.4
20180424225411 61 94 0.0 0.9 0.00 1.67 1.11 83 1012.4
20180424224910 62 58 0.9 4.3 0.00 1.67 1.11 82 1012.4
20180424224409 62 229 0.0 4.3 0.00 1.67 1.11 80 1012.4
20180424223908 62 218 0.9 7.0 0.00 1.67 1.11 79 1012.4
20180424223407 63 258 1.7 7.0 0.00 1.67 1.11 77 1012.4
20180424222907 63 243 1.7 4.3 0.00 1.67 1.11 76 1012.4
20180424222406 64 282 0.9 4.3 0.00 1.67 1.11 75 1012.4
20180424221905 64 232 1.7 5.2 0.00 1.67 1.11 75 1012.4
20180424221404 64 222 2.6 5.2 0.00 1.67 1.11 75 1012.0
20180424220903 64 230 1.7 5.2 0.00 1.67 1.11 75 1012.0
20180424220402 65 266 1.7 6.1 0.00 1.67 1.11 75 1012.0
20180424215901 65 142 0.0 6.1 0.00 1.67 1.11 76 1012.0